Location: P�rn�nmaa
(61.1833°N, 23.0000°E)
Time: 18:24:18
(UTC+00:00)

SeaSat 1 - Pass Details

Date: 08 December 2019
Orbit: 744 x 748 km, 108.0° (Epoch: 21 January)

Event Time Altitude Azimuth Distance (km) Brightness Sun altitude
Exits shadow 15:08:33 13° 87° (E) 2,036 4.1 -11.7°
Maximum altitude 15:12:21 36° 26° (NNE) 1,188 3.1 -12.1°
Drops below altitude 10° 15:16:50 10° 321° (NW) 2,277 5.1 -12.6°
Sets 15:19:14 0° 313° (NW) 3,204 6.0 -12.8°
